Regional Weather Roundup
Issued by NWS

Home | Current Version | Previous Version | Graphics & Text | Print | Product List | Glossary Off
Versions: 1 2 3 4 5 6 7 8 9 10 11 12 13 14 15 16 17 18 19 20 21 22 23 24 25 26 27 28 29 30 31 32 33 34 35 36 37 38 39 40 41 42 43 44 45 46 47 48 49 50

000
ASUS43 KMKX 220820
RWRWI

WISCONSIN REGIONAL WEATHER ROUNDUP
NATIONAL WEATHER SERVICE MILWAUKEE/SULLIVAN WI
200 AM CST MON JAN 22 2018

NOTE: "FAIR" INDICATES FEW OR NO CLOUDS BELOW 12,000 FEET WITH NO
SIGNIFICANT WEATHER AND/OR OBSTRUCTIONS TO VISIBILITY.

WIZ001-002-006>008-014>016-023>028-220900-
NORTHWEST WISCONSIN

CITY           SKY/WX    TMP DP  RH WIND       PRES   REMARKS
SUPERIOR ARPT  CLOUDY    29  29  99 NE16G23   30.06R WCI  18
ASHLAND        CLOUDY    29  28  96 NE16      30.05F WCI  17
HAYWARD        CLOUDY    31  27  85 NE9       29.98F WCI  23
SIREN          CLOUDY    32  29  90 NE7       29.97R WCI  25
CUMBERLAND     CLOUDY    32  28  86 NE13      29.93S WCI  22
RICE LAKE      FAIR      32  30  92 N14       29.94S WCI  22
CHETEK         CLOUDY    34  30  86 NE8       29.93S WCI  27
LADYSMITH      CLOUDY    33  30  88 NE9       29.95S WCI  26
EAU CLAIRE     CLOUDY    36  30  79 NE9       29.87F WCI  29
MENOMONIE      CLOUDY    37  31  81 N10       29.88F WCI  29
NEW RICHMOND   CLOUDY    33  28  83 NE15      29.90F WCI  22
OSCEOLA        CLOUDY    32  29  89 NE12      29.94F WCI  23
$$

WIZ003>005-009-010-017-018-220900-
NORTH CENTRAL WISCONSIN

CITY           SKY/WX    TMP DP  RH WIND       PRES   REMARKS
MANITOWISH WTR CLOUDY    29  29 100 NE6       29.96S WCI  23
ARBOR VITAE    CLOUDY    32  31  95 NE5       29.95S WCI  28
WOODRUFF       CLOUDY    32  31  95 NE5       29.95S WCI  28
RHINELANDER    CLOUDY    32  30  92 NE7       29.93F WCI  26
EAGLE RIVER    CLOUDY    31  31  99 NE8       29.95S WCI  24
LAND O LAKES   FOG       31  31  99 N7        29.99R VSB 1   WCI  24
PHILLIPS       CLOUDY    31  30  97 NE10G17   29.94S WCI  22
TOMAHAWK       CLOUDY    32  29  89 NE5       29.93F WCI  27
MEDFORD        CLOUDY    34  30  86 NE10      29.88F WCI  26
MERRILL        CLOUDY    34  31  87 E5        29.92F WCI  30
$$

WIZ029-030-035-036-043>047-220900-
CENTRAL WISCONSIN

CITY           SKY/WX    TMP DP  RH WIND       PRES   REMARKS
WAUSAU         CLOUDY    34  30  85 E8        29.88F WCI  27
MOSINEE        CLOUDY    34  32  93 NE13G18   29.90F WCI  25
MARSHFIELD     CLOUDY    35  31  85 E14       29.85F WCI  26
STEVENS POINT  CLOUDY    33  32  96 NE15      29.88F WCI  22
WAUPACA        CLOUDY    36  33  90 NE9       29.90F FOG     WCI  29
WAUTOMA        MIX PCPN  34  33  96 NE14G23   29.85F FOG     WCI  25
WISC RAPIDS    CLOUDY    35  30  82 E12       29.87F WCI  27
CAMP DOUGLAS   CLOUDY    36  36 100 NE12      29.83S FOG     WCI  27
$$

WIZ011>013-019>022-031-037>040-048>050-220900-
NORTHEAST WISCONSIN

CITY           SKY/WX    TMP DP  RH WIND       PRES   REMARKS
ANTIGO         CLOUDY    32  31  95 NE7       29.92F WCI  26
SHAWANO        CLOUDY    35  32  88 NE12G17   29.93F WCI  27
OCONTO         CLOUDY    33  32  96 NE12      29.95S WCI  24
STURGEON BAY   FOG       34  34 100 NE13      29.95S VSB 3/4 WCI  25
GREEN BAY      LGT RAIN  33  31  92 NE16      29.92F VSB 1/2 WCI  23
MANITOWOC      MIX PCPN  36  36 100 NE8       29.90F FOG     WCI  29
APPLETON       CLOUDY    32  32 100 NE12      29.88F FOG     WCI  23
CLINTONVILLE   CLOUDY    34  32  93 NE10      29.92F WCI  26
OSHKOSH        CLOUDY    33  33 100 NE15      29.87F FOG     WCI  23
$$

WIZ032>034-041-042-053>061-220900-
SOUTHWEST WISCONSIN

CITY           SKY/WX    TMP DP  RH WIND       PRES   REMARKS
LA CROSSE      CLOUDY    40  35  83 NE8G17    29.80F HAZE    WCI  34
SPARTA         CLOUDY    36  35  96 NE12G18   29.83F FOG     WCI  27
VIROQUA        CLOUDY    36  36 100 E18G24    29.76S WCI  26
BOSCOBEL       CLOUDY    38  37  97 NE6       29.76F FOG     WCI  33
PRAIRIE DU CHI LGT RAIN  38  36  91 E8        29.73F WCI  32
PLATTEVILLE    CLOUDY    37  37 100 NE16      29.71F WCI  28
$$

WIZ056-057-062-063-064-067-068-220900-
SOUTH CENTRAL WISCONSIN

CITY           SKY/WX    TMP DP  RH WIND       PRES   REMARKS
REEDSBURG      CLOUDY    35  35 100 NE10      29.80S WCI  27
BARABOO/DELLS  CLOUDY    35  34  98 E13       29.80F FOG     WCI  26
LONE ROCK      CLOUDY    38  37  97 NE13      29.78S WCI  30
MINERAL POINT  LGT RAIN  37  37 100 NE15      29.72F WCI  28
MADISON        RAIN      36  35  96 NE13      29.78F FOG     WCI  27
MIDDLETON      CLOUDY    37  37 100 E9        29.79F WCI  30
WATERTOWN      LGT RAIN  36  36 100 E9G16     29.80F WCI  29
MONROE         RAIN      36  36 100 NE12      29.74S WCI  27
JANESVILLE     CLOUDY    37  37 100 NE12      29.75F FOG     WCI  30
$$

WIZ051-052-058>065-066-070>072-220900-
SOUTHEAST WISCONSIN

CITY           SKY/WX    TMP DP  RH WIND       PRES   REMARKS
MILWAUKEE      DRZL/FOG  36  36 100 NE8       29.82F VSB 1/2 WCI  30
WAUKESHA       CLOUDY    34  34 100 NE15      29.81F FOG     WCI  24
MILWAUKEE/TIMM DRIZZLE   36  34  93 NE8       29.83F WCI  29
RACINE         FOG       37  37 100 NE8       29.82F VSB 1/4 WCI  31
BURLINGTON     MOCLDY    37  36  96 NE7       29.78F FOG     WCI  31
KENOSHA        FOG       38  37  97 NE8       29.79F VSB 1/4 WCI  32
FOND DU LAC    LGT RAIN  36  34  92 NE10      29.85S FOG     WCI  28
SHEBOYGAN      LGT RAIN  36  36 100 NE15      29.86F VSB 1   WCI  27
WEST BEND      DRIZZLE   34  34 100 NE12      29.83F WCI  25
JUNEAU         HVY RAIN  35  35  98 NE8       29.82F WCI  29
$$

LSZ147-162-220900-
LAKE SUPERIOR

STATION/POSITION TIME  TEMP    WIND        PRES    WAVE
                       AIR SEA DIR/SP/G            HT/PER
                 (UTC) (F)     (DEG/KT/KT) (MB)    (FT/S)
DEVILS ISLAND    0800   26      60/ 21/ 23 1019.6R
SAXON HARBOR     0740   30      60/ 12/ 17 1017.3R
$$

LMZ867-665-643>646-220900-
LAKE MICHIGAN

STATION/POSITION TIME  TEMP    WIND        PRES    WAVE
                       AIR SEA DIR/SP/G            HT/PER
                 (UTC) (F)     (DEG/KT/KT) (MB)    (FT/S)
NORTHPORT PIER   0803   33      CALM  /  7 1015.2
KEWAUNEE LAKESHO 0754   35      30/ 12/ 15 1012.6F
SHEBOYGAN LAKESH 0800   36      40/ 15/ 16 1011.7F
PORT WASHINGTON  0730   37      40/ 14/ 15 1011.9F
MILWAUKEE LAKESH 0800   36      20/ 12/ 14   N/A
KENOSHA   LAKESH 0800   35      10/ 10/ 10 1008.8
$$

TC  - TEMPERATURE IN CELSIUS
VSB - VISIBILITY IN STATUTE MILES
WCI - WIND CHILL INDEX
HX  - HEAT INDEX





USA.gov is the U.S. government's official web portal to all federal, state and local government web resources and services.